Regional Weather Roundup
Issued by NWS Columbia, SC

Home | Current Version | Previous Version | Text Only | Print | Product List | Glossary On
Versions: 1 2 3 4 5 6 7 8 9 10 11 12 13 14 15 16 17 18 19 20 21 22 23 24 25 26 27 28 29 30 31 32 33 34 35 36 37 38 39 40 41 42 43 44 45 46 47 48 49 50
000
ASUS42 KCAE 280410
RWRCAE
REGIONAL WEATHER ROUNDUP
NATIONAL WEATHER SERVICE COLUMBIA SC
1100 PM EST THU NOV 27 2014

NOTE: "FAIR" INDICATES FEW OR NO CLOUDS BELOW 12,000 FEET WITH NO
SIGNIFICANT WEATHER AND/OR OBSTRUCTIONS TO VISIBILITY.

NOT ALL STATIONS ARE QUALITY CONTROLLED BY THE NATIONAL
WEATHER SERVICE. USE DATA WITH CAUTION...ESPECIALLY
DEWPOINT OBSERVATIONS.

SCZ001>056-GAZ040-063>065-077-280500-
...UPSTATE SOUTH CAROLINA...

CITY           SKY/WX    TMP DP  RH WIND       PRES   REMARKS
ANDERSON       CLEAR     37  25  61 NW9       30.31R WCI  30
LIBERTY        FAIR      34  25  69 W5        30.29S WCI  30
SPARTANBURG    FAIR      37  25  60 N10       30.30R WCI  30
CLEMSON        CLEAR     39  20  46 W9        30.31S WCI  33
GREENVILLE     CLEAR     36  24  62 VRB5      30.30R WCI  32
GREENWOOD      CLEAR     31  26  82 W3        30.32S
GREER          CLEAR     35  25  66 E6        30.28R WCI  30
ROCK HILL      CLEAR     36  23  59 NW7       30.30R WCI  30
CHESTER        FAIR      37  25  60 NW5       30.30R WCI  34
LAURENS        FAIR      32  23  69 NW5       30.31R WCI  27


...CENTRAL SOUTH CAROLINA...

CITY           SKY/WX    TMP DP  RH WIND       PRES   REMARKS
COLUMBIA APT   CLEAR     41  27  57 NW6       30.31R
COLUMBIA OWENS CLEAR     40  26  57 CALM      30.32R
DARLINGTON     CLEAR     34  28  80 CALM      30.29R
FLORENCE       CLEAR     40  30  67 NW3       30.27R
MCENTIRE ANGB  CLEAR     36  26  68 N5        30.30R WCI  32
ORANGEBURG     CLEAR     41  28  60 N6        30.30S
SUMTER SHAW    CLEAR     38  29  69 W7        30.28R WCI  33
NEWBERRY       FAIR      36  28  75 NW6       30.34R WCI  31
AIKEN          FAIR      36  30  80 W3        30.35R
BARNWELL       FAIR      39  32  75 W5        30.32F
CAMDEN         FAIR      36  28  75 CALM      30.31R
LANCASTER      FAIR      34  30  86 W3        30.30R
WINNSBORO      FAIR      36  27  69 N7        30.29R WCI  30


...EASTERN AND COASTAL SOUTH CAROLINA...

CITY           SKY/WX    TMP DP  RH WIND       PRES   REMARKS
MYRTLE BEACH   CLEAR     43  34  70 NW8       30.27R
N MYRTLE BCH   CLEAR     41  34  76 NW5       30.25R
CONWAY         FAIR      36  36 100 CALM      30.28R
MARION         FAIR      37  32  81 CALM      30.28R
FLORENCE       CLEAR     40  30  67 NW3       30.27R
DARLINGTON     CLEAR     34  28  80 CALM      30.29R
CHARLESTON APT CLEAR     42  32  67 NW8       30.29R
MOUNT PLEASANT FAIR      43  34  70 NW8       30.28R
WALTERBORO     CLEAR     41  32  70 NW5       30.32R
BEAUFORT       CLEAR     42  33  70 NW8       30.31R


...EASTERN GEORGIA...

CITY           SKY/WX    TMP DP  RH WIND       PRES   REMARKS
AUGUSTA BUSH F CLEAR     39  27  62 NW8       30.33S WCI  33
AUGUSTA DANIEL CLEAR     41  27  57 NW10      30.32S
THOMSON        CLEAR     35  32  88 CALM      30.38S
WASHINGTON     FAIR      41  34  75 NW7       30.33S
CLAXTON        FAIR      41  14  33 W5        30.34S
SYLVANIA       CLEAR     41  34  75 NW6       30.33S
STATESBORO     CLEAR     39  32  75 NW7       30.34S WCI  34
SAVANNAH       CLEAR     43  31  62 NW5       30.33R


...SOUTHERN NORTH CAROLINA...

CITY           SKY/WX    TMP DP  RH WIND       PRES   REMARKS
CHARLOTTE      PTCLDY    36  22  56 NW9       30.28R WCI  29
MONROE         CLEAR     37  24  59 NW3       30.27R
WADESBORO      CLEAR     31  27  88 CALM      30.28R
ROCKINGHAM     CLEAR     36  29  74 NW3       30.26R
RUTHERFORDTON  CLOUDY    35  23  61 CALM      30.31R
ASHEVILLE      CLOUDY    30  21  69 N12G21    30.26S WCI  20

$$


USA.gov is the U.S. government's official web portal to all federal, state and local government web resources and services.